This is the latest recevied weather packets stored in our database for station/object KQ7A. If no packets are shown the sender has not sent any weather packets the latest 10 day(s).
| Time | Temp. | Humidity | Pressure | Rain* | Wind** | Luminosity | Snow |
|---|---|---|---|---|---|---|---|
| 1788091187 | 9.44° C | 64% | 1019.4 hPa | 0 mm | - | 0 W/m² | - |
| 1788090883 | 10° C | 59% | 1019.3 hPa | 0 mm | - | 0 W/m² | - |
| 1788090579 | 10° C | 60% | 1019.4 hPa | 0 mm | - | 0 W/m² | - |
| 1788090275 | 9.44° C | 59% | 1019.4 hPa | 0 mm | - | 0 W/m² | - |
| 1788089980 | 10° C | 55% | 1019.3 hPa | 0 mm | - | 0 W/m² | - |
| 1788089670 | 8.89° C | 61% | 1019.4 hPa | 0 mm | - | 0 W/m² | - |
| 1788089365 | 8.33° C | 64% | 1019.6 hPa | 0 mm | - | 0 W/m² | - |
| 1788089061 | 6.67° C | 70% | 1019.7 hPa | 0 mm | - | 0 W/m² | - |
| 1788088757 | 6.67° C | 73% | 1019.6 hPa | 0 mm | - | 0 W/m² | - |
| 1788088453 | 7.22° C | 70% | 1019.7 hPa | 0 mm | - | 0 W/m² | - |
| 1788088148 | 7.78° C | 66% | 1019.2 hPa | 0 mm | - | 0 W/m² | - |
| 1788087844 | 8.89° C | 68% | 1019.4 hPa | 0 mm | - | 0 W/m² | - |
| 1788087542 | 10° C | 58% | 1019.4 hPa | 0 mm | - | 0 W/m² | - |
| 1788087239 | 9.44° C | 60% | 1019.3 hPa | 0 mm | - | 0 W/m² | - |
| 1788086935 | 7.78° C | 66% | 1019.6 hPa | 0 mm | - | 0 W/m² | - |
| 1788086632 | 7.78° C | 68% | 1019.4 hPa | 0 mm | - | 0 W/m² | - |
| 1788086331 | 8.33° C | 65% | 1018.9 hPa | 0 mm | - | 0 W/m² | - |
| 1788086027 | 8.33° C | 68% | 1019 hPa | 0 mm | - | 0 W/m² | - |
| 1788085724 | 8.89° C | 68% | 1019.2 hPa | 0 mm | - | 0 W/m² | - |
| 1788085421 | 9.44° C | 66% | 1019 hPa | 0 mm | - | 0 W/m² | - |
| 1788085117 | 10° C | 57% | 1019.1 hPa | 0 mm | - | 0 W/m² | - |
| 1788084812 | 10.56° C | 54% | 1019.1 hPa | 0 mm | - | 0 W/m² | - |
| 1788084511 | 10° C | 53% | 1019 hPa | 0 mm | - | 0 W/m² | - |
| 1788084205 | 10.56° C | 54% | 1019.1 hPa | 0 mm | - | 0 W/m² | - |
| 1788083904 | 11.11° C | 54% | 1018.9 hPa | 0 mm | - | 0 W/m² | - |
* Rain latest hour (hover to see other rain measurements)
** Current wind speed in m/s (hover to see current wind gust speed)